{"data":{"norad_id":67927,"intl_designator":"2026-036Z","name":"STARLINK-36728","alt_names":[],"object_type":"PAYLOAD","status":"ACTIVE","operator":null,"country":"US","launch_date":"2026-02-22","launch_site_code":"AFETR","launch_vehicle":null,"mission":null,"orbit_class":"UNKNOWN","rcs_meters":null,"size_class":null,"mass_kg":null,"dimensions":null,"purposes":["comms"],"wikipedia_slug":null,"has_3d_model":false,"image_url":null,"decayed_at":null,"tle_current":{"epoch":"2026-09-19T15:04:20.580672Z","epoch_age_seconds":138606,"freshness":"FRESH","line1":"1 67927U 26036Z   26262.62801598  .00012552  00000+0  46484-3 0  9998","line2":"2 67927  42.9964 229.8977 0000616 282.6791  77.3992 15.27582571 33386","mean_motion":15.27582571,"eccentricity":6.16e-5,"inclination_deg":42.9964,"raan_deg":229.8977,"arg_perigee_deg":282.6791,"mean_anomaly_deg":77.3992,"bstar":0.00046484,"rev_number":3338,"period_min":94.266590057867,"perigee_km":482.61874896225,"apogee_km":483.46404614083,"semimajor_km":6861.1783975515,"source":"CELESTRAK","updated_at":"2026-09-20T09:00:43.705523Z"}}}